FENGYUN 1C DEB, 30628

Orbit data source: Space-Track

FENGYUN 1C DEB, 30628 is space debris in SSO originally from a launch on Mon, 10 May 1999 UTC launched from the Taiyaun Space Center, China (TSC). Fengyun 1C debris stems from the Chinese weather satellite Fengyun-1C, which was intentionally destroyed by a Chinese anti-satellite missile in 2007. This event dramatically increased the amount of space debris, with thousands of trackable fragments posing hazards to satellites and human spaceflight. The Fengyun 1C debris cloud has become a focal point in discussions about space sustainability and the need for international regulations to prevent the creation of new debris.

Loading next visibility...
Identifier
30628, 1999-025ANK
Orbit
SSO
Country
Flag of CNCN / PRC
Related business
Manufacturer
Unknown
Mission
Spacecraft
Bus & Motor
Unknown
Mass
Unknown
Launch date (UTC)
1999-05-10 (27 years ago)
Launch vehicle
Unknown
Launch site
Taiyaun Space Center, China (TSC)
Object type
Payload
Rocket body
Debris
Shape & HBR
Unknown shape, 0.1 m
Radar Cross Section
Small (<0.1 m²)

Expand to show TLE details & history
Last TLE update: 1 day ago

TLE from 1 day ago
0 FENGYUN 1C DEB
1 30628U 99025ANK 26145.32959476  .00014758  00000-0  22188-2 0  9995
2 30628  99.3427  90.1427 0023711  95.9671 264.4237 14.74422383  8711
Epoch: 2026-05-25T07:54Z
TLE epoch observation values (Epoch: 2026-05-25T07:54:36.987Z)
Latitude
0.00004°
Longitude
88.56964°
Altitude
651.611 km
Speed
7.531 km/s
True Right ascension
06h 00m 34s
True Declination
0° 00' 00"
Sunlit
Object was in daylight at epoch
Visualization orbit readout
Latitude
Unknown
Longitude
Unknown
Altitude
Unknown
Speed
Unknown
Apparent Right ascension
Unknown
Apparent Declination
Unknown
Sunlit
N/A
Visualization observer readout
Local Sidereal Time
19:07:19
Azimuth
Unknown
Elevation
Unknown
Doppler factor
Unknown
Orbital elements
Apogee altitude
660.754 km
Perigee altitude
627.453 km
Semi-major axis
7,022.241 km
Eccentricity
0.00237
Inclination
99.3427°
RAAN
90.1427°
Arg. of periapsis
95.9671°
True anomaly
264.15336°
Mean anomaly
264.4237°
Eccentric anomaly
264.28852°
Mean motion
3.68833 °/min
Orbital period
97.61 mins
BSTAR
0.0022188
Loading maneuver chart data...
Computing Atmospheric mass density...

Documentation

Showing up to 5 results
|